RH
72 64 77 100 88 83 81 83 79 86 100 100 97 97 99 100 99 100 94 100 100 100 100 86 76 88 100 97 80 70 68 65 65 68 62 55 56 77 78 90 100 100 100 100
68 64 78 84 90 97 99 92 90 95 94 93 85 73 80 80 91 96 100 98 100 100 100 100 94 84 93 80 74 70 69 66 60 59 68 63 62 90 98 100 100 100 100 100
83 58 53 56 71 78 81 77 76 81 85 80 77 92 87 81 86 75 62 63 62 64 82 92 84 100 98 85 75 71 72 67 62 65 82 77 73 73 82 100 100 100 100 100
81 85 53 41 43 74 88 82 76 79 82 82 89 79 100 100 100 72 55 57 62 67 74 87 100 100 99 86 87 77 70 68 58 63 97 99 81 84 94 100 100 100 100 91
64 62 63 52 37 33 43 64 80 88 96 95 94 82 100 100 97 52 61 65 65 69 72 67 75 96 91 92 88 81 84 91 79 100 100 100 87 99 100 100 100 86 89 90
42 48 47 43 43 38 35 38 51 69 73 79 98 88 97 100 95 66 65 72 65 61 57 55 56 67 89 90 91 98 97 100 82 100 100 100 100 86 100 73 96 84 80 81
43 37 35 36 35 31 31 37 41 46 50 53 52 55 66 75 64 58 53 48 43 38 35 35 42 54 66 71 84 100 100 100 96 82 62 77 98 84 92 100 92 97 91 86
27 25 23 24 24 25 26 27 31 32 32 41 43 42 40 38 37 36 35 39 31 24 29 66 90 68 64 56 97 100 90 100 75 100 81 94 92 65 57 86 100 68 63 65
25 22 23 23 26 25 29 24 33 29 28 29 30 40 37 32 29 28 29 26 27 32 58 64 79 77 89 69 79 100 94 74 71 100 100 100 100 100 100 100 100 100 100 95
29 32 34 33 35 36 46 52 50 45 43 61 41 97 88 100 80 100 80 90 72 82 89 89 100 99 96 100 100 89 100 100 100 100 100 100 100 100 100 100 100 100 100 100
33 42 46 44 46 48 48 46 50 51 42 43 52 85 92 84 100 100 100 100 100 84 100 100 100 100 100 100 100 100 100 100 100 100 100 100 100 100 100 100 100 100 100 100
47 51 54 56 53 49 54 50 42 41 46 54 54 58 59 49 46 52 60 76 72 67 94 94 100 100 100 100 100 100 100 100 100 100 100 100 100 100 100 100 100 100 100 100
60 62 68 71 62 56 50 48 64 70 61 52 53 44 57 55 49 51 52 57 68 83 85 84 80 70 100 100 98 100 99 99 100 100 100 100 100 96 93 100 100 98 93 88
91 92 96 78 69 75 62 54 63 61 51 52 55 57 70 75 70 66 61 58 49 50 56 76 100 100 100 100 100 100 91 99 100 100 100 100 100 100 100 93 90 90 54 47
85 96 83 91 92 86 81 75 68 61 62 75 79 82 71 69 75 83 82 94 96 86 66 55 56 63 66 62 62 64 62 56 52 58 61 63 58 52 49 50 50 40 37 37
97 94 83 89 90 100 90 71 72 100 92 72 65 63 81 73 63 74 93 93 94 99 100 100 100 89 81 82 68 58 48 41 36 39 36 38 43 36 31 32 32 35 36 37
88 82 84 79 86 88 79 100 98 78 82 78 73 76 69 68 72 74 77 89 100 99 99 84 68 61 52 52 47 43 38 35 34 30 26 24 22 20 20 20 18 18 21 28
94 88 90 96 97 84 99 98 100 98 86 82 75 75 81 78 82 91 80 80 88 83 75 64 45 39 43 44 35 30 23 25 24 21 17 15 15 15 14 13 14 12 15 22
100 89 93 100 100 98 100 99 81 84 68 92 87 85 88 84 86 89 93 80 67 62 60 44 39 43 34 24 19 22 23 19 17 16 14 12 12 11 10 10 11 11 12 15
97 97 71 53 75 64 98 89 77 71 62 82 82 74 64 62 67 60 58 52 46 40 31 26 23 19 18 21 23 18 15 14 13 12 12 11 12 11 11 12 11 11 12 13
29 29 34 41 42 34 82 50 64 44 48 59 46 37 36 43 46 45 41 32 26 23 20 19 16 17 19 17 14 12 14 13 12 12 12 12 13 13 13 14 13 13 15 15
23 24 25 28 30 24 31 32 30 32 30 27 30 34 36 33 34 32 26 23 21 21 19 17 14 15 17 16 16 14 14 14 14 14 15 15 17 20 19 18 18 17 18 29
24 27 22 16 17 25 27 26 26 26 25 25 27 25 26 25 23 22 22 22 22 24 20 20 20 19 17 15 14 15 14 16 18 18 19 18 18 23 24 24 30 30 29 34
20 23 19 20 19 18 20 26 24 17 16 25 29 24 24 21 20 22 24 21 23 24 18 19 20 16 14 14 15 15 16 19 18 19 19 18 17 26 32 39 40 49 44 36
22 25 24 17 16 16 20 18 17 18 18 18 22 22 20 19 23 23 21 21 21 21 18 18 15 14 14 15 14 16 18 19 21 18 18 19 18 18 35 43 54 45 52 50
27 20 16 16 14 16 18 14 14 16 18 20 19 20 16 13 18 20 19 15 15 15 13 15 15 16 17 15 16 17 16 15 18 17 13 15 16 18 23 38 49 46 45 49
Wind_Speed
92 93 90 92 94 93 94 93 90 93 92 95 95 87 84 84 85 81 86 83 80 81 84 86 85 81 75 74 73 72 71 73 73 68 65 58 53 53 56 58 60 58 56 53
94 94 99 98 96 94 95 95 95 93 96 99 96 91 88 84 82 86 86 84 86 85 87 89 86 79 70 72 71 75 78 75 76 70 65 58 54 57 59 58 58 56 58 57
97 97 98 98 98 100 98 95 94 93 95 95 92 86 84 81 81 89 87 85 91 89 90 90 84 76 73 72 76 77 76 79 80 75 67 59 56 58 61 61 59 60 59 58
101 104 103 98 98 97 96 100 96 95 96 94 95 81 84 87 93 95 92 91 92 90 89 84 81 83 83 83 80 82 83 82 80 73 68 61 60 60 60 58 56 57 59 62
104 105 104 104 107 103 101 101 102 98 95 93 94 99 88 95 100 99 97 93 94 94 92 89 85 91 90 86 82 82 80 75 76 71 70 64 64 67 64 64 64 63 64 63
108 108 106 108 107 106 107 109 108 107 104 98 98 102 89 95 96 98 95 99 100 100 99 97 92 89 89 84 77 73 78 78 74 70 73 75 77 69 61 63 67 68 63 65
105 101 105 106 107 108 108 108 109 110 109 103 101 101 98 99 97 100 98 98 102 101 97 96 93 90 84 80 73 74 79 80 75 70 69 70 69 68 66 77 67 67 66 66
95 96 98 97 92 95 94 95 97 102 98 93 91 94 96 95 96 101 99 92 91 89 89 82 79 79 77 75 74 79 76 82 77 76 75 71 73 77 69 72 79 76 77 74
91 95 97 94 89 90 88 90 89 93 89 87 85 86 88 91 92 89 88 87 84 82 79 80 79 76 75 75 73 78 80 77 78 81 83 81 79 87 87 83 84 84 85 87
91 89 92 89 88 89 85 85 87 87 81 81 73 75 79 85 84 82 87 85 88 85 87 87 85 83 82 82 82 82 85 83 84 84 88 87 93 96 94 94 89 93 95 96
91 89 92 90 88 89 93 92 91 90 87 88 78 75 75 88 93 92 91 91 96 89 87 92 91 94 94 94 94 93 95 94 92 93 97 101 106 107 97 93 93 94 96 96
94 94 96 98 99 97 101 99 98 96 91 89 88 83 84 87 90 94 100 99 101 98 92 90 98 96 96 97 100 101 108 105 109 105 105 111 116 114 114 115 112 111 113 114
99 100 102 101 107 103 102 100 97 96 95 94 98 89 89 90 95 97 99 94 96 103 103 101 98 95 99 106 114 115 114 111 115 119 123 123 120 122 127 128 126 127 128 128
106 105 102 105 107 106 105 100 99 102 102 99 99 97 81 87 96 99 100 101 95 96 101 104 107 109 111 119 118 116 121 127 127 127 128 130 132 135 135 135 135 135 120 112
113 112 109 105 107 109 106 101 100 105 103 104 97 102 86 91 97 96 98 101 103 104 110 101 94 96 104 104 109 114 118 116 118 123 126 127 127 120 119 121 118 112 106 101
122 118 113 111 112 112 110 100 101 102 105 107 105 97 96 93 90 89 94 100 103 106 106 104 110 111 110 109 110 110 112 114 114 114 112 107 104 102 99 96 94 93 90 88
125 125 125 124 121 115 104 95 103 104 105 108 106 101 95 95 92 90 91 92 95 102 104 106 108 107 103 101 103 101 100 98 96 94 93 91 87 81 80 80 81 78 75 75
132 130 125 120 117 114 99 99 104 106 106 104 105 100 97 96 93 95 93 92 96 99 100 98 97 97 94 93 90 89 88 86 84 82 80 80 75 72 71 70 68 67 65 63
121 121 118 118 116 111 99 100 109 111 101 102 101 100 98 95 95 97 97 93 92 93 92 91 88 87 89 88 83 81 79 78 74 73 72 67 66 65 64 64 62 59 57 56
119 118 115 110 111 106 94 101 106 112 99 100 97 95 94 91 89 87 86 88 89 90 90 86 85 83 80 76 75 74 70 69 67 64 62 56 57 57 56 55 55 51 52 54
109 109 108 106 108 96 92 95 106 104 97 93 89 90 87 83 84 86 88 89 89 90 87 85 80 75 71 67 66 63 63 65 61 57 55 49 50 50 49 50 49 46 47 51
100 101 95 94 97 89 88 91 93 92 92 87 85 86 85 85 86 85 85 85 84 82 80 78 69 66 67 64 64 62 60 60 57 54 51 48 45 48 47 48 47 45 46 47
92 94 93 89 83 82 84 83 89 91 87 82 82 81 84 84 84 81 78 78 77 76 75 72 71 69 67 64 60 58 54 53 55 54 50 49 46 46 46 46 46 46 48 50
84 87 89 89 74 77 73 81 84 83 73 75 79 77 79 77 74 70 71 69 68 71 71 66 67 66 63 58 54 54 49 50 53 54 51 50 49 46 45 46 48 49 52 53
79 82 85 76 66 74 72 72 71 73 72 67 70 73 71 64 64 64 67 66 63 65 64 62 63 62 57 54 51 49 48 49 53 53 51 49 49 47 47 48 51 54 55 57
78 76 75 64 64 73 64 65 63 60 61 61 63 64 67 57 55 60 62 63 59 61 58 58 56 54 53 50 49 45 46 45 46 54 49 49 48 48 49 48 52 57 58 59
Wind_Direction
264 266 267 270 268 269 268 267 266 270 271 273 277 279 282 281 278 276 275 280 280 282 283 284 286 290 294 293 291 295 296 297 295 297 298 298 291 283 285 284 282 281 279 284
267 268 267 268 271 269 269 271 271 271 271 275 278 281 281 280 278 276 274 276 278 280 281 285 287 288 291 291 292 293 296 295 295 297 296 292 285 281 281 281 282 279 281 283
267 269 270 270 269 270 271 272 272 271 273 275 276 279 279 279 276 277 280 281 281 284 283 287 289 288 286 287 291 291 293 295 297 295 289 286 279 276 279 277 276 278 280 283
268 268 268 268 270 269 270 272 274 275 273 273 276 274 277 277 277 280 284 285 286 285 285 285 287 284 283 286 290 291 294 294 295 292 283 280 279 276 275 273 273 277 279 279
269 270 270 271 271 270 270 274 274 275 274 274 276 275 272 276 279 282 284 284 284 283 282 285 288 287 289 289 290 291 292 287 287 282 278 274 281 276 278 276 270 273 273 275
270 269 271 271 272 272 272 273 273 275 276 276 274 274 276 276 279 279 281 284 284 285 284 285 283 284 286 288 287 283 285 282 279 277 277 275 275 277 274 279 276 278 277 276
267 271 272 272 274 274 272 272 273 274 276 278 277 278 277 278 280 280 280 280 282 283 285 285 283 281 282 283 283 276 278 277 275 273 278 275 278 279 270 273 278 275 279 279
267 269 270 271 270 271 273 273 276 276 274 276 279 277 278 279 280 280 278 277 279 281 283 282 281 279 280 281 273 273 279 275 274 269 278 277 279 286 286 275 272 284 281 280
267 266 268 270 271 271 272 273 274 275 276 274 280 285 285 285 284 279 278 278 281 283 282 281 282 281 279 282 283 276 282 283 273 264 269 269 275 284 284 283 275 276 280 280
267 269 271 272 272 273 277 278 278 278 276 283 281 279 285 287 286 287 286 285 287 286 285 283 283 282 280 280 280 280 279 280 278 273 269 266 275 281 281 278 277 274 273 274
266 271 275 275 276 280 278 277 280 280 281 281 281 277 272 269 272 272 273 269 278 275 270 276 278 278 276 279 280 283 278 275 274 274 274 271 274 277 278 277 275 274 274 271
271 275 277 281 278 276 278 279 279 278 283 284 282 281 281 280 277 273 273 272 274 275 269 267 267 271 274 273 269 271 274 271 272 268 269 270 270 271 271 275 274 273 272 271
273 276 277 278 280 277 277 278 283 284 282 282 281 281 282 284 282 281 280 278 277 276 272 270 271 271 267 271 269 270 271 274 271 270 273 273 273 274 275 276 275 273 275 273
275 276 275 277 276 277 278 278 280 281 281 279 280 281 282 283 283 283 285 285 280 278 277 273 269 270 269 266 266 267 269 271 271 271 271 271 273 275 276 276 276 276 277 275
275 274 275 276 277 278 278 278 281 280 280 280 280 280 281 280 280 283 285 285 284 287 286 288 286 282 278 276 274 272 273 272 271 271 271 271 274 276 277 275 275 274 273 272
275 275 274 276 278 279 278 281 281 279 278 279 282 283 283 278 282 282 281 282 283 285 286 286 284 283 282 281 280 279 279 279 279 279 278 278 277 275 274 273 272 271 271 270
272 274 276 277 276 278 279 281 278 279 281 282 283 285 283 285 286 284 282 283 284 284 283 283 282 280 281 282 281 282 282 282 281 279 279 277 276 275 273 271 271 271 268 265
271 273 274 274 276 277 279 279 278 277 279 283 285 285 285 286 287 285 284 285 284 283 282 283 283 282 284 283 284 286 286 284 282 281 281 280 281 278 276 273 270 269 266 261
269 271 273 274 274 274 276 278 278 278 281 282 281 282 284 287 287 285 286 286 283 282 282 281 282 283 283 285 287 285 284 283 282 281 281 280 279 276 275 274 271 267 264 260
268 271 270 271 271 273 273 273 276 278 281 279 281 283 283 283 284 285 285 284 282 281 280 283 283 283 285 287 285 283 283 283 282 282 280 279 275 274 274 272 269 267 262 257
265 267 268 270 273 275 276 275 273 276 278 280 281 281 281 283 283 282 281 281 281 283 284 284 284 285 284 285 285 287 288 285 284 283 283 279 276 274 273 271 269 265 261 257
268 269 271 270 271 276 275 274 275 275 277 278 279 280 282 280 278 279 279 279 280 281 284 286 289 290 289 288 289 288 285 283 284 282 281 279 275 273 272 272 270 265 259 254
269 269 269 272 272 272 271 273 274 274 276 280 279 279 279 278 278 277 278 278 279 282 282 284 287 288 288 287 285 283 281 282 280 280 278 276 275 273 272 272 268 263 261 256
268 269 271 271 275 273 273 272 272 274 274 276 276 274 272 273 275 279 277 276 277 278 281 283 282 283 285 285 284 282 283 281 279 277 276 275 273 268 266 264 262 260 261 258
268 268 270 272 273 271 272 270 270 272 274 273 272 272 272 272 273 272 274 275 275 277 279 280 281 284 285 286 285 287 286 280 276 275 273 270 269 266 261 258 257 258 257 258
264 266 269 270 269 265 268 271 271 271 272 269 266 267 269 275 273 269 269 271 274 275 278 280 284 287 287 289 290 289 282 275 272 270 270 267 264 263 261 255 257 258 259 260